Providence, RI

7:32 PM EST on January 17, 2018 (GMT -0500)
Green State

Weather History for KPVD - June, 2013

Change the Weather History Date:

Wednesday, June 19, 2013

  Actual Average Record
Temperature  
Mean Temperature 67 °F 69 °F  
Max Temperature 76 °F 79 °F 94 °F (1923)
Min Temperature 57 °F 60 °F 45 °F (1956)
Degree Days  
Heating Degree Days 0 1  
Month to date heating degree days 24 38  
Since 1 June heating degree days 24 38  
Since 1 July heating degree days 5318 5613  
Cooling Degree Days 2 5  
Month to date cooling degree days 59 65  
Year to date cooling degree days 103 91  
Since 1 June cooling degree days 59 65  
Growing Degree Days 16 (Base 50)    
Moisture  
Dew Point 53 °F    
Average Humidity 63    
Maximum Humidity 93    
Minimum Humidity 33    
Precipitation  
Precipitation 0.01 in 0.11 in 2.17 in (1922)
Month to date precipitation 9.32 2.57  
Year to date precipitation 23.92 22.64  
Snow  
Snow 0.00 in 0.00 in 0.00 in (2016)
Month to date snowfall 0.0 0.0  
Since 1 June snowfall 0.0 0.0  
Since 1 July snowfall 46.3 33.8  
Snow Depth 0.00 in    
Sea Level Pressure  
Sea Level Pressure 29.99 in    
Wind  
Wind Speed 9 mph (North)    
Max Wind Speed 17 mph    
Max Gust Speed 22 mph    
Visibility 10 miles    
Events Rain    
T = Trace of Precipitation, MM = Missing Value Source: NWS Daily Summary

Daily Weather History Graph

Daily Weather History Graph

Search for Another Location

Airport or City:

Trip Planner

Search our weather history database for the weather conditions in past years. The results will help you decide how hot, cold, wet, or windy it might be!

Date:

Astronomy

Jun. 19, 2013 Rise Set
Actual Time 5:10 AM EDT 8:23 PM EDT
Civil Twilight 4:36 AM EDT 8:57 PM EDT
Nautical Twilight 3:52 AM EDT 9:41 PM EDT
Astronomical Twilight 2:59 AM EDT 10:34 PM EDT
Moon 4:10 PM EDT (6/19) 1:56 AM EDT (6/19)
Length of Visible Light 16h 21m
Length of Day
15h 12m
Waxing Gibbous, 80% of the Moon is Illuminated
Jun 19
Waxing Gibbous
Jun 23
Full
Jun 30
Last Quarter
Jul 8
New
Jul 15
First Quarter

Hourly Weather History & Observations

Time (EDT) Temp. Dew Point Humidity Pressure Visibility Wind Dir Wind Speed Gust Speed Precip Events Conditions
12:34 AM 60.8 °F 57.2 °F 88% 29.90 in 9.0 mi North 10.4 mph - 0.03 in Rain Light Rain
12:51 AM 59.0 °F 57.0 °F 93% 29.90 in 9.0 mi North 9.2 mph - 0.03 in Rain Light Rain
1:40 AM 59.0 °F 57.2 °F 94% 29.89 in 10.0 mi North 13.8 mph - 0.02 in Rain Light Rain
1:51 AM 59.0 °F 55.9 °F 90% 29.89 in 10.0 mi North 12.7 mph - 0.02 in Rain Light Rain
2:51 AM 59.0 °F 55.9 °F 90% 29.89 in 10.0 mi North 13.8 mph - 0.00 in   Overcast
3:51 AM 57.9 °F 53.1 °F 84% 29.90 in 10.0 mi North 10.4 mph - N/A   Overcast
4:51 AM 57.9 °F 52.0 °F 81% 29.91 in 10.0 mi NNW 9.2 mph - N/A   Overcast
5:51 AM 57.0 °F 51.1 °F 81% 29.91 in 10.0 mi North 6.9 mph - N/A   Scattered Clouds
6:51 AM 59.0 °F 53.1 °F 81% 29.93 in 10.0 mi North 9.2 mph - N/A   Mostly Cloudy
7:51 AM 62.1 °F 55.0 °F 78% 29.96 in 10.0 mi North 11.5 mph - N/A   Mostly Cloudy
8:51 AM 64.9 °F 55.0 °F 70% 29.98 in 10.0 mi North 13.8 mph - N/A   Mostly Cloudy
9:51 AM 68.0 °F 54.0 °F 61% 30.00 in 10.0 mi North 11.5 mph - N/A   Scattered Clouds
10:51 AM 70.0 °F 54.0 °F 57% 30.01 in 10.0 mi NNE 12.7 mph 18.4 mph N/A   Scattered Clouds
11:51 AM 71.1 °F 52.0 °F 51% 30.01 in 10.0 mi NNE 10.4 mph - N/A   Scattered Clouds
12:51 PM 71.1 °F 50.0 °F 47% 30.01 in 10.0 mi NNE 8.1 mph - N/A   Mostly Cloudy
1:51 PM 73.0 °F 48.0 °F 41% 30.01 in 10.0 mi NNE 11.5 mph - N/A   Mostly Cloudy
2:51 PM 73.0 °F 46.9 °F 39% 30.03 in 10.0 mi NW 8.1 mph - N/A   Mostly Cloudy
3:51 PM 75.0 °F 48.0 °F 38% 30.03 in 10.0 mi NW 5.8 mph - N/A   Mostly Cloudy
4:51 PM 75.0 °F 45.0 °F 34% 30.04 in 10.0 mi Calm Calm - N/A   Scattered Clouds
5:51 PM 72.0 °F 53.1 °F 51% 30.04 in 10.0 mi South 10.4 mph - N/A   Scattered Clouds
6:51 PM 69.1 °F 51.1 °F 53% 30.07 in 10.0 mi South 11.5 mph - N/A   Scattered Clouds
7:51 PM 66.9 °F 50.0 °F 54% 30.09 in 10.0 mi South 6.9 mph - N/A   Partly Cloudy
8:51 PM 64.0 °F 51.1 °F 63% 30.11 in 10.0 mi South 5.8 mph - N/A   Partly Cloudy
9:51 PM 62.1 °F 54.0 °F 75% 30.14 in 10.0 mi South 5.8 mph - N/A   Partly Cloudy
10:51 PM 60.1 °F 55.0 °F 83% 30.15 in 10.0 mi SSW 4.6 mph - N/A   Partly Cloudy
11:51 PM 60.1 °F 55.9 °F 86% 30.16 in 10.0 mi Calm Calm - N/A   Partly Cloudy